Powrót do katalogu

COSMOS 1867 COOLANT

AktywnyLEO
NORAD 39639·DEBRIS·🇷🇺 Russia

Wystrzelony Jul 10, 1987 z Baikonur Cosmodrome

Loading…

Następne Przeloty (najbliższe 24 godziny)

TLE

ŚwieżeSource: Space-Track

Epoka: Sep 14, 2026, 08:03 UTC

1 39639U 87060G   26257.33605652  .00000138  00000-0  85778-4 0  9994
2 39639  65.0048 122.7302 0018600 277.8024  82.0949 14.33697214650358

Śledź COSMOS 1867 COOLANT w czasie rzeczywistym z AllMySat

Download on the App Store